Location: Unspecified
(0.0000°N, 0.0000°E)
Time: 06:35:22
(UTC+00:00)

Transit 2A Rocket - Pass Details

Date: 23 November 2019
Orbit: 594 x 909 km, 66.7° (Epoch: 11 December)

Event Time Altitude Azimuth Distance (km) Brightness Sun altitude
Rises 19:30:32 0° 217° (SW) 3,352 9.3 -24.3°
Reaches altitude 10° 19:33:18 10° 227° (SW) 2,365 8.4 -24.9°
Maximum altitude 19:38:03 32° 288° (WNW) 1,277 6.5 -26.0°
Enters shadow 19:40:50 19° 338° (NNW) 1,681 6.7 -26.7°
